User: anonymous   Login
Location: Unspecified
(0.0000°N, 0.0000°E)
Time: 04:05:49
(UTC+00:00)
Language:

Resurs 1-3 - Orbit

View from above orbital plane
View from above orbital plane
View from above satellite
View from above satellite

Ground track
Ground track

The orbit data is extracted from the following two-line orbital elements,

1 23342U 94074A   18022.57537534 +.00000040 +00000-0 +12523-4 0  9991
2 23342 098.0521 066.5271 0001903 100.9241 259.2184 14.79317418249942
Epoch (UTC): 22 January 2018 13:48:32
Eccentricity: 0.0001903
inclination: 98.0521°
perigee height: 630 km
apogee height: 633 km
right ascension of ascending node: 66.5271°
argument of perigee: 100.9241°
revolutions per day: 14.79317418
mean anomaly at epoch: 259.2184°
orbit number at epoch: 24994

The dashed part of the orbit path shows where the satellite is in the earth's shadow,  

DLR